ADF AIRWAYS. MIAMI FLORIDA’S PREMIER FLIGHT TRAINING ACADEMY

Thank you for visiting ADF Airways. Located in Miami, Florida, ADF airways is a premier Flight Training school dedicated to helping those who want to learn how to fly. Whether you are a new student seeking a license to fly for fun, or an advanced pilot looking to get your ATP rating, we’re confident ADF Airways will exceed your expectations!

 

OVER 3 DECADES OF EXPERIENCE WITH A PERSONAL TOUCH

ADF Airways has been in the business of helping pilots since 1986. We take an individual approach to flight training, and can tailor your experience at whatever pace you choose. Our instructors have a combined experience of well over 40 years in the business, and we’re sure we will be able to help you live your dream. ADF Airways is :

  • An FAA-approved Part 141 Flight Academy (Part 61 training available)
  • Approved by the Department of Veterans Affairs (VA)
  • An experiecnced leader in helping students attatin a full range of ratings from Private Pilot to Airline Transport Pilot with Jet Transition training.
  • A strong partner that assists  foreign students to gain FAA ratings and student visas.
  • A quality centered organization that provides experienced Flight Instructors
  • A large provider of a wide range of single and multi-engine aircraft.

ADF Airways has been providing quality Flight instruction for over 3 decades. Established in 1986, we are located at the Kendall-Tamiami Executive Airport (TMB) in Miami, Florida. We have grown into an institution of more than 200 active students. ADF Airways is dedicated to giving each person the personal attention he or she deserves. Our experienced flight instructor staff truly enjoys teaching and giving their undivided attention to the wants and needs of each student. They here just to to help you succeed!

 

 

Facebook By Weblizar Powered By Weblizar

METARS

KTMB 291553Z 14005KT 10SM BKN039 33/24 A3007 RMK AO2 SLP182 T03330239

KOPF 291637Z 33008G21KT 1 3/4SM +TSRA BKN024 BKN039 OVC110 27/22 A3009 RMK AO2 WSHFT 1614 RAB17 TSB11 P0025 T02670222

KFLL 291620Z 12004KT 10SM SCT026 BKN065 BKN250 31/25 A3006 RMK AO2 RAE15 P0002 T03110250

TAF INFORMATION

TAF AMD KTMB 291438Z 2915/3012 13007KT P6SM VCSH SCT025 SCT250 TEMPO 2916/2918 4SM SHRA BKN025 FM291800 14008KT P6SM VCSH SCT035 FM300200 VRB05KT P6SM FEW025 SCT250

TAF AMD KOPF 291559Z 2916/3012 13008KT P6SM SCT025 SCT250 TEMPO 2916/2918 VRB15G25KT 4SM TSRA BKN025CB FM291800 14010KT P6SM VCSH SCT035 FM300200 VRB05KT P6SM FEW025 SCT250

TAF KFLL 281745Z 2818/2918 11011KT P6SM VCSH SCT028 SCT040 SCT250 FM290300 12006KT P6SM FEW030 SCT250 FM291400 13009KT P6SM SCT030

SO MANY GRADUATES, SO MANY DREAMS MADE REALITY

ADF Airways has graduated many students over its 30 plus years in the business. The above gallery shows just a sample of our most recent graduates. Click here to see our gallery of graduates page.

Our Programs and Services

ADF Airways offers a variety of programs to suit your needs. Click on any of the links below for more information

Private Pilot Course

Foreign License Conversion

Instrument Rating Course

Jet Transition Program

Commercial Pilot Course

CFI Course

FAA Testing Center

PARTNERS